User: anonymous   Login
Location: Unspecified
(0.0000°N, 0.0000°E)
Time: 15:54:24
(UTC+01:00)
Language:

THEMIS B - Orbit

View from above orbital plane
View from above orbital plane
View from above satellite
View from above satellite

Ground track
Ground track

The orbit data is extracted from the following two-line orbital elements,

1 30581U 07004B   10095.89583333 -.15399425  00000-0  99999-4 0  2840
2 30581 016.6405 318.7761 9672524 258.4792 301.1994 00.02053516  6438
Epoch (UTC): 05 April 2010 21:30:00
Eccentricity: 0.9672524
inclination: 16.6405°
perigee height: 12068 km
apogee height: 1101752 km
right ascension of ascending node: 318.7761°
argument of perigee: 258.4792°
revolutions per day: 0.02053516
mean anomaly at epoch: 301.1994°
orbit number at epoch: 643

The dashed part of the orbit path shows where the satellite is in the earth's shadow,  

DLR